Location: Capelle
(50.3413°N, 1.9974°E)
Time: 06:27:38
(UTC+00:00)

Landsat 7 - Pass Details

Date: 12 January 2026
Orbit: 680 x 682 km, 97.9° (Epoch: 18 February)

Event Time Altitude Azimuth Distance (km) Brightness Sun altitude
Rises 17:31:44 0° 174° (S) 3,032 7.3 -12.0°
Reaches altitude 10° 17:33:59 10° 178° (S) 2,122 6.5 -12.4°
Maximum altitude 17:38:35 61° 259° (W) 779 4.4 -13.1°
Drops below altitude 10° 17:43:13 10° 340° (NNW) 2,138 6.4 -13.8°
Sets 17:45:30 0° 344° (NNW) 3,058 7.1 -14.1°
